星链-5367 (STARLINK-5367 )

导读 | 豆包AI

STARLINK-5367是美国太空探索技术公司(SpaceX)星链星座的成员卫星,于2023年2月2日发射入轨,属于星链低轨互联网星座组网卫星,运行在近地轨道,为全球提供高速宽带互联网服务。星链项目计划最终部署超4万颗卫星,弥补偏远地区网络覆盖不足,支撑全球互联,该卫星的发射进一步扩充了星链星座的服务能力。

基本信息
目录编号:
55501
目录名称:
STARLINK-5367
国际标识:
2023-015BE
轨道中心:
EARTH
卫星名称:
星链-5367
卫星全名:
星链-5367 (STARLINK-5367 )
卫星状态:
在轨 (已飞行1209 天)
发射日期:
2023-02-02 UTC
国别 :
美国 (US)
星等 :
--
轨道信息
数据来源 国际轨道数据 AOE轨道数据
星历时间 2026-05-25T02:03:59+0800
1天前
查看轨道信息
2026-05-22T01:00:00+0800
4天前
查看轨道信息
半长轴 6861.208km 6861.21km
偏心率 0.0001545 0.0001813
轨道倾角 43.003° 43.003°
近地点辐角 263.129° 276.019°
升交点赤经 270.531° 287.725°
平近点角 96.939° 242.346°
近地点 482.01km 481.829km
远地点 484.132km 484.317km
周期 94.267分钟 94.267分钟
每日圈数 15.27573 15.275721
详细信息
固有亮度:
5
最大亮度:
2.5
卫星平台:
Starlink v1.5
覆盖范围:
全球
运营商:
太空探索技术公司
运营商所在国:
美国
制造商(研发单位):
太空探索技术公司
制造商所在国:
美国
使用方式:
暂无
卫星简介
星链(Starlink)计划是由太空探索技术公司(SpaceX)提出的一个巨型低轨卫星互联网星座项目,计划在2019年至2024年间在太空搭建由约1.2万颗卫星组成的“星链”网络,其中1584颗将部署在地球上空550千米处的近地轨道,并从2020年开始工作。该卫星仍在工作。
2D轨道图
3D轨道图
轨道高度分析图
轨道倾角分析图
轨道综合分析图
查看轨道综合分析图